Location: Copper Breaks State Park
(34.1132°N, 99.7492°W)
Time: 10:26:35
(UTC-05:00)

Amateur Radio Satellites - All Passes

Search period start: 24 October 2014 09:56
Search period end: 25 October 2014 09:56
Location: Copper Breaks State Park, 34.1132°N, 99.7492°W

Satellite Date Start Highest point End Downlink Frequencies (MHz)
Time Altitude Azimuth
MaSat-1 24 Oct 10:16:16 10:18:29 27° 63° (ENE) 10:20:35 437.345 MHz
PANSAT 24 Oct 10:25:11 10:28:42 35° 181° (S) 10:32:13 not established
Oscar 11 24 Oct 10:35:37 10:38:58 22° 96° (E) 10:42:19 145.825 FM, Beacon 2401.500 USB
HO-68 24 Oct 10:36:55 10:44:08 74° 104° (ESE) 10:51:17 435.675 MHz FM
RS-15 24 Oct 10:39:52 10:48:44 28° 256° (WSW) 10:57:56 29.354 - 29.394 USB, Beacon 29.352 USB
ZACube-1 24 Oct 11:22:53 11:26:39 31° 97° (E) 11:30:20 437.345 MHz
UKube-1 24 Oct 11:28:47 11:33:09 76° 284° (WNW) 11:37:29 145.840 MHz, 145.915 MHz
KITSAT 1 24 Oct 11:38:30 11:44:05 21° 103° (ESE) 11:49:39 435.175 FM
PANSAT 24 Oct 12:05:21 12:08:28 24° 193° (SSW) 12:11:35 not established
FUNcube-1 24 Oct 12:07:25 12:11:39 72° 284° (WNW) 12:15:47 145.950 - 145.970 MHz USB
ISS 24 Oct 12:08:17 12:09:31 12° 126° (SE) 12:10:45 145.800 FM
Oscar 10/S400 24 Oct 12:10:51 12:36:06 30° 154° (SSE) 12:51:39 145.825 - 145.975 CW/USB, Beacon 145.810 USB
Oscar 11 24 Oct 12:11:32 12:15:03 25° 289° (WNW) 12:18:34 145.825 FM, Beacon 2401.500 USB
HO-68 24 Oct 12:26:22 12:31:03 19° 300° (WNW) 12:35:44 435.675 MHz FM
ZACube-1 24 Oct 13:00:00 13:02:47 17° 292° (WNW) 13:05:32 437.345 MHz
SO-50 24 Oct 13:04:40 13:08:35 31° 112° (ESE) 13:12:36 436.795 FM
JAS-1B 24 Oct 13:13:27 13:16:23 14° 63° (ENE) 13:19:14 435.800 - 435.900 CW/SSB
KITSAT 1 24 Oct 13:30:37 13:38:39 71° 299° (WNW) 13:46:44 435.175 FM
ISS 24 Oct 13:42:36 13:45:50 50° 319° (NW) 13:49:06 145.800 FM
Oscar 19 24 Oct 13:43:21 13:47:46 30° 70° (ENE) 13:52:12 437.125 CW, 437.150 USB
Sapphire 24 Oct 13:44:06 13:48:55 31° 57° (ENE) 13:53:42 437.095 MHz 1200 baud AX-25 AFSK
AO-27 24 Oct 14:01:06 14:04:32 18° 66° (ENE) 14:07:58 436.795 MHz FM
PCSat 24 Oct 14:06:22 14:11:41 54° 61° (ENE) 14:16:57 145.825 MHz
AO-Echo 24 Oct 14:27:19 14:31:48 39° 72° (ENE) 14:36:27 ?
Oscar 16 24 Oct 14:28:08 14:33:19 88° 76° (ENE) 14:38:30 437.025 USB, Beacon 2401.1428
UOSAT-12 24 Oct 14:31:18 14:34:46 21° 110° (ESE) 14:38:18 437.025 FM, 437.400 FM
SO-50 24 Oct 14:45:31 14:49:07 23° 308° (NW) 14:52:49 436.795 FM
Uribyol 2 24 Oct 14:47:03 14:52:07 55° 73° (ENE) 14:57:13 436.500 FM
ITAMSAT 1 24 Oct 14:52:57 14:58:03 59° 74° (ENE) 15:03:11 435.822 SSB
JAS-1B 24 Oct 15:00:26 15:06:34 63° 258° (WSW) 15:12:13 435.800 - 435.900 CW/SSB
Gurwin Techsat 1B 24 Oct 15:10:36 15:15:35 43° 72° (ENE) 15:20:36 435.225 FM
TMSAT-1 24 Oct 15:22:10 15:27:05 41° 72° (ENE) 15:32:02 436.925 FM
Oscar 19 24 Oct 15:22:43 15:27:01 27° 264° (W) 15:31:21 437.125 CW, 437.150 USB
Sapphire 24 Oct 15:27:33 15:32:13 30° 252° (WSW) 15:36:52 437.095 MHz 1200 baud AX-25 AFSK
KITSAT 1 24 Oct 15:31:07 15:35:34 15° 320° (NW) 15:40:02 435.175 FM
AO-27 24 Oct 15:38:38 15:43:37 47° 260° (W) 15:48:39 436.795 MHz FM
PCSat 24 Oct 15:51:17 15:54:35 17° 256° (WSW) 15:57:53 145.825 MHz
AO-Echo 24 Oct 16:07:25 16:10:43 18° 267° (W) 16:14:06 ?
UOSAT-12 24 Oct 16:10:27 16:14:40 34° 305° (NW) 16:18:58 437.025 FM, 437.400 FM
Uosat F 24 Oct 16:13:27 16:16:39 17° 66° (ENE) 16:19:51 435.120 FM
AO-7 24 Oct 16:17:16 16:24:55 43° 65° (ENE) 16:32:33 29.400 - 29.500 MHz
Uribyol 2 24 Oct 16:29:03 16:31:52 15° 267° (W) 16:34:42 436.500 FM
ITAMSAT 1 24 Oct 16:35:21 16:37:51 13° 268° (W) 16:40:21 435.822 SSB
Gurwin Techsat 1B 24 Oct 16:52:00 16:55:41 19° 266° (W) 16:59:24 435.225 FM
TMSAT-1 24 Oct 17:03:16 17:07:06 20° 266° (W) 17:10:58 436.925 FM
JAS-2 24 Oct 17:04:17 17:07:44 16° 60° (ENE) 17:11:24 435.800 - 435.900 CW/SSB, 435.910 FM
Hamsat 24 Oct 17:38:26 17:40:17 13° 67° (ENE) 17:42:07 145.90 MHz
Saudisat 1A 24 Oct 17:45:01 17:49:26 75° 60° (ENE) 17:53:50 436.775 MHz
Uosat F 24 Oct 17:50:12 17:55:00 46° 260° (W) 17:59:51 435.120 FM
OPAL 24 Oct 17:56:58 18:00:22 18° 97° (E) 18:03:45 ?
AO-7 24 Oct 18:10:13 18:17:39 37° 261° (W) 18:25:08 29.400 - 29.500 MHz
JAS-2 24 Oct 18:46:10 18:51:51 70° 259° (W) 18:58:22 435.800 - 435.900 CW/SSB, 435.910 FM
SO-67 24 Oct 19:03:15 19:04:15 11° 69° (ENE) 19:05:14 435.3500 MHz FM
Hamsat 24 Oct 19:11:47 19:15:48 43° 261° (W) 19:19:49 145.90 MHz
OPAL 24 Oct 19:34:45 19:39:21 40° 290° (WNW) 19:43:56 ?
STRAND 1 24 Oct 19:40:22 19:44:32 25° 96° (E) 19:48:41 ?
AO-40 24 Oct 20:01:17 22:56:29 43° 196° (SSW) 04:33:07 Beacon 2401.320
ISS 24 Oct 20:14:20 20:17:22 31° 37° (NE) 20:20:22 145.800 FM
SO-67 24 Oct 20:33:48 20:36:52 31° 262° (W) 20:39:58 435.3500 MHz FM
HO-68 24 Oct 21:01:38 21:08:04 38° 66° (ENE) 21:14:32 435.675 MHz FM
STRAND 1 24 Oct 21:19:09 21:23:41 32° 290° (WNW) 21:28:12 ?
KITSAT 1 24 Oct 21:28:32 21:35:32 31° 51° (NE) 21:42:29 435.175 FM
Oscar 11 24 Oct 21:28:59 21:30:32 12° 66° (ENE) 21:32:04 145.825 FM, Beacon 2401.500 USB
SO-50 24 Oct 21:40:39 21:43:09 14° 47° (NE) 21:45:39 436.795 FM
ISS 24 Oct 21:51:23 21:53:53 20° 231° (SW) 21:56:23 145.800 FM
ZACube-1 24 Oct 22:16:15 22:19:23 19° 69° (ENE) 22:22:30 437.345 MHz
UKube-1 24 Oct 22:20:20 22:24:34 56° 74° (ENE) 22:28:51 145.840 MHz, 145.915 MHz
RS-15 24 Oct 22:44:29 22:55:23 67° 113° (ESE) 23:06:08 29.354 - 29.394 USB, Beacon 29.352 USB
HO-68 24 Oct 22:49:15 22:55:40 36° 262° (W) 23:02:09 435.675 MHz FM
FUNcube-1 24 Oct 22:59:26 23:03:56 56° 75° (ENE) 23:08:23 145.950 - 145.970 MHz USB
Oscar 11 24 Oct 23:02:01 23:06:13 51° 260° (W) 23:10:26 145.825 FM, Beacon 2401.500 USB
SO-50 24 Oct 23:19:20 23:24:12 72° 243° (WSW) 23:29:03 436.795 FM
KITSAT 1 24 Oct 23:23:25 23:31:13 55° 249° (WSW) 23:38:59 435.175 FM
MaSat-1 24 Oct 23:48:47 23:52:27 28° 108° (ESE) 23:55:53 437.345 MHz
ZACube-1 24 Oct 23:51:16 23:55:29 36° 262° (W) 23:59:41 437.345 MHz
FUNcube-1 25 Oct 00:39:16 00:40:33 11° 268° (W) 00:41:49 145.950 - 145.970 MHz USB
UOSAT-12 25 Oct 00:43:07 00:47:49 72° 60° (ENE) 00:52:25 437.025 FM, 437.400 FM
RS-15 25 Oct 00:58:55 01:08:26 33° 315° (NW) 01:18:00 29.354 - 29.394 USB, Beacon 29.352 USB
Oscar 10/S400 25 Oct 01:09:33 02:21:47 32° 238° (WSW) 06:25:32 145.825 - 145.975 CW/USB, Beacon 145.810 USB
MaSat-1 25 Oct 01:25:03 01:28:03 19° 299° (WNW) 01:30:52 437.345 MHz
Oscar 19 25 Oct 02:00:04 02:02:36 14° 93° (E) 02:05:07 437.125 CW, 437.150 USB
AO-Echo 25 Oct 02:38:57 02:42:40 19° 94° (E) 02:46:21 ?
Oscar 16 25 Oct 02:43:54 02:48:45 42° 99° (E) 02:53:34 437.025 USB, Beacon 2401.1428
JAS-1B 25 Oct 02:46:16 02:52:54 44° 101° (E) 03:00:44 435.800 - 435.900 CW/SSB
Uribyol 2 25 Oct 03:04:12 03:08:32 26° 96° (E) 03:12:50 436.500 FM
PCSat 25 Oct 03:05:29 03:06:47 11° 102° (ESE) 03:08:04 145.825 MHz
ITAMSAT 1 25 Oct 03:10:10 03:14:39 28° 97° (E) 03:19:05 435.822 SSB
RS-15 25 Oct 03:23:06 03:25:55 11° 348° (NNW) 03:28:45 29.354 - 29.394 USB, Beacon 29.352 USB
Gurwin Techsat 1B 25 Oct 03:31:10 03:35:23 24° 95° (E) 03:39:35 435.225 FM
Oscar 19 25 Oct 03:37:13 03:42:13 56° 286° (WNW) 03:47:12 437.125 CW, 437.150 USB
TMSAT-1 25 Oct 03:42:25 03:46:29 22° 95° (E) 03:50:31 436.925 FM
AO-27 25 Oct 03:55:15 04:00:30 85° 103° (ESE) 04:05:43 436.795 MHz FM
AO-Echo 25 Oct 04:16:31 04:21:33 44° 288° (WNW) 04:26:34 ?
Sapphire 25 Oct 04:21:38 04:26:56 61° 112° (ESE) 04:32:17 437.095 MHz 1200 baud AX-25 AFSK
Oscar 16 25 Oct 04:24:11 04:27:45 19° 293° (WNW) 04:31:18 437.025 USB, Beacon 2401.1428
AO-7 25 Oct 04:25:02 04:29:39 16° 93° (E) 04:34:15 29.400 - 29.500 MHz
JAS-1B 25 Oct 04:37:27 04:43:19 31° 291° (WNW) 04:50:05 435.800 - 435.900 CW/SSB
Uribyol 2 25 Oct 04:43:25 04:47:56 31° 291° (WNW) 04:52:25 436.500 FM
PCSat 25 Oct 04:44:03 04:49:26 76° 296° (WNW) 04:54:53 145.825 MHz
ITAMSAT 1 25 Oct 04:49:35 04:54:01 29° 291° (WNW) 04:58:26 435.822 SSB
OPAL 25 Oct 05:08:06 05:12:10 24° 66° (ENE) 05:16:11 ?
Gurwin Techsat 1B 25 Oct 05:10:34 05:15:21 35° 290° (WNW) 05:20:08 435.225 FM
TMSAT-1 25 Oct 05:21:35 05:26:26 38° 289° (WNW) 05:31:16 436.925 FM
AO-27 25 Oct 05:39:00 05:39:14 10° 298° (WNW) 05:39:28 436.795 MHz FM
RS-15 25 Oct 05:39:11 05:45:32 16° 28° (NNE) 05:51:58 29.354 - 29.394 USB, Beacon 29.352 USB
JAS-2 25 Oct 05:59:34 06:05:46 25° 93° (E) 06:11:51 435.800 - 435.900 CW/SSB, 435.910 FM
Uosat F 25 Oct 06:01:26 06:06:30 74° 102° (ESE) 06:11:31 435.120 FM
Sapphire 25 Oct 06:07:16 06:10:46 17° 309° (NW) 06:14:17 437.095 MHz 1200 baud AX-25 AFSK
AO-7 25 Oct 06:14:50 06:23:11 86° 288° (WNW) 06:31:32 29.400 - 29.500 MHz
PCSat 25 Oct 06:33:04 06:33:44 10° 314° (NW) 06:34:25 145.825 MHz
PANSAT 25 Oct 06:42:39 06:43:49 11° 157° (SSE) 06:44:59 not established
OPAL 25 Oct 06:46:08 06:50:49 35° 260° (W) 06:55:28 ?
STRAND 1 25 Oct 06:52:53 06:57:00 25° 68° (ENE) 07:01:08 ?
Hamsat 25 Oct 07:00:57 07:04:55 40° 99° (E) 07:08:53 145.90 MHz
Uosat F 25 Oct 07:43:09 07:44:36 11° 297° (WNW) 07:46:03 435.120 FM
JAS-2 25 Oct 07:43:22 07:51:02 61° 288° (WNW) 07:58:36 435.800 - 435.900 CW/SSB, 435.910 FM
Saudisat 1A 25 Oct 07:47:49 07:52:00 46° 115° (ESE) 07:56:12 436.775 MHz
RS-15 25 Oct 07:50:10 08:01:09 56° 55° (NE) 08:12:32 29.354 - 29.394 USB, Beacon 29.352 USB
SO-67 25 Oct 08:00:53 08:03:30 20° 96° (E) 08:06:06 435.3500 MHz FM
AO-7 25 Oct 08:10:01 08:14:47 17° 305° (NW) 08:19:33 29.400 - 29.500 MHz
PANSAT 25 Oct 08:20:09 08:23:25 27° 169° (SSE) 08:26:40 not established
STRAND 1 25 Oct 08:31:27 08:35:59 32° 262° (W) 08:40:34 ?
Hamsat 25 Oct 08:38:21 08:40:29 14° 292° (WNW) 08:42:37 145.90 MHz
Saudisat 1A 25 Oct 09:29:01 09:31:47 16° 311° (NW) 09:34:34 436.775 MHz
JAS-2 25 Oct 09:33:39 09:34:31 10° 304° (NW) 09:35:22 435.800 - 435.900 CW/SSB, 435.910 FM
SO-67 25 Oct 09:34:03 09:36:18 17° 289° (WNW) 09:38:32 435.3500 MHz FM
MaSat-1 25 Oct 09:39:21 09:40:22 12° 58° (ENE) 09:41:23 437.345 MHz
